Aurora, OR

3:16 PM PST on February 10, 2016 (GMT -0800)
Aurora State

Weather History for KUAO - August, 2014

Change the Weather History Date:

Tuesday, August 19, 2014

  Actual Average Record
Temperature  
Mean Temperature 74 °F -  
Max Temperature 88 °F - 98 °F (2015)
Min Temperature 62 °F - 50 °F (1998)
Degree Days  
Heating Degree Days 0    
Month to date heating degree days 0  
Since 1 June heating degree days 92  
Since 1 July heating degree days 5  
Cooling Degree Days 10    
Month to date cooling degree days 152  
Year to date cooling degree days 386  
Since 1 June cooling degree days 359  
Growing Degree Days 24 (Base 50)    
Moisture  
Dew Point 57 °F    
Average Humidity 62    
Maximum Humidity 90    
Minimum Humidity 34    
Precipitation  
Precipitation 0.00 in - 0.26 in (2007)
Month to date precipitation 0.09  
Year to date precipitation 23.85  
Sea Level Pressure  
Sea Level Pressure 29.84 in    
Wind  
Wind Speed 4 mph (NNW)    
Max Wind Speed 18 mph    
Max Gust Speed 23 mph    
Visibility 10 miles    
Events      
T = Trace of Precipitation, MM = Missing Value Source: NWS Daily Summary

Daily Weather History Graph

Daily Weather History Graph

Search for Another Location

Airport or City:

Trip Planner

Search our weather history database for the weather conditions in past years. The results will help you decide how hot, cold, wet, or windy it might be!

Date:

Astronomy

Aug. 19, 2014 Rise Set
Actual Time 6:17 AM PDT 8:11 PM PDT
Civil Twilight 5:45 AM PDT 8:42 PM PDT
Nautical Twilight 5:06 AM PDT 9:21 PM PDT
Astronomical Twilight 4:24 AM PDT 10:03 PM PDT
Moon 1:08 AM PDT (8/19) 4:17 PM PDT (8/19)
Length of Visible Light 14h 57m
Length of Day
13h 54m
Waning Crescent, 28% of the Moon is Illuminated
Aug 19
Waning Crescent
Aug 25
New
Sep 2
First Quarter
Sep 8
Full
Sep 15
Last Quarter

Hourly Weather History & Observations

Time (PDT) Temp. Heat Index Dew Point Humidity Pressure Visibility Wind Dir Wind Speed Gust Speed Precip Events Conditions
12:53 AM 71.1 °F - 57.9 °F 63% 29.82 in 10.0 mi Calm Calm - N/A   Clear
1:53 AM 68.0 °F - 59.0 °F 73% 29.82 in 10.0 mi Calm Calm - N/A   Clear
2:53 AM 66.9 °F - 59.0 °F 76% 29.82 in 10.0 mi Calm Calm - N/A   Clear
3:53 AM 64.0 °F - 60.1 °F 87% 29.84 in 10.0 mi Calm Calm - N/A   Clear
4:53 AM 64.9 °F - 59.0 °F 81% 29.84 in 10.0 mi Calm Calm - N/A   Clear
5:53 AM 64.9 °F - 59.0 °F 81% 29.83 in 10.0 mi Calm Calm - N/A   Clear
6:53 AM 62.1 °F - 59.0 °F 90% 29.85 in 10.0 mi Calm Calm - N/A   Clear
7:53 AM 66.0 °F - 59.0 °F 78% 29.86 in 10.0 mi Calm Calm - N/A   Clear
8:53 AM 69.1 °F - 57.9 °F 68% 29.87 in 10.0 mi Calm Calm - N/A   Clear
9:53 AM 73.0 °F - 57.9 °F 59% 29.88 in 10.0 mi NNW 3.5 mph - N/A   Clear
10:53 AM 75.0 °F - 57.9 °F 55% 29.87 in 10.0 mi Variable 4.6 mph - N/A   Unknown
11:53 AM 77.0 °F - 57.0 °F 50% 29.86 in 10.0 mi Calm Calm - N/A   Clear
12:53 PM 81.0 °F 80.8 °F 55.9 °F 42% 29.85 in 10.0 mi North - - N/A   Clear
1:53 PM 82.0 °F 81.6 °F 55.9 °F 41% 29.84 in 10.0 mi Variable 3.5 mph - N/A   Clear
2:53 PM 84.9 °F 83.7 °F 55.9 °F 37% 29.82 in 10.0 mi Variable 4.6 mph - N/A   Clear
3:53 PM 87.1 °F 85.3 °F 55.0 °F 33% 29.80 in 10.0 mi Variable 4.6 mph - N/A   Clear
4:53 PM 84.9 °F 83.7 °F 55.9 °F 37% 29.79 in 10.0 mi NNW 9.2 mph - N/A   Clear
5:53 PM 82.9 °F 82.1 °F 55.9 °F 39% 29.81 in 10.0 mi NNW 15.0 mph 23.0 mph N/A   Clear
6:53 PM 79.0 °F - 57.9 °F 48% 29.81 in 10.0 mi NNW 11.5 mph 21.9 mph N/A   Clear
7:53 PM 75.0 °F - 57.9 °F 55% 29.83 in 10.0 mi NNW 8.1 mph 18.4 mph N/A   Overcast
8:53 PM 71.1 °F - 57.0 °F 61% 29.86 in 10.0 mi NNW 11.5 mph - N/A   Scattered Clouds
9:53 PM 68.0 °F - 55.0 °F 63% 29.88 in 10.0 mi NNW 8.1 mph - N/A   Partly Cloudy
10:53 PM 66.0 °F - 54.0 °F 65% 29.89 in 10.0 mi North 6.9 mph - N/A   Partly Cloudy
11:53 PM 64.0 °F - 54.0 °F 70% 29.89 in 10.0 mi North 3.5 mph - N/A   Clear